Overview Statistics Trail Chart Weather Telemetry Raw packets
 

This is the latest recevied weather packets stored in our database for station/object SV9TNF-56. If no packets are shown the sender has not sent any weather packets the latest 10 day(s).

<< 41 42 43 44 45 46 47 >>
Time Temp. Humidity Pressure Rain* Wind** Luminosity Snow
1788380034 25° C 63% 1010.8 hPa 0 mm 4.92 m/s, 150° - -
1788379734 25° C 62% 1011.2 hPa 0 mm 16.99 m/s, 93° - -
1788379434 25° C 63% 1010.8 hPa 0 mm 9.83 m/s, 132° - -
1788379134 25.56° C 62% 1010.8 hPa 0 mm 3.13 m/s, 156° - -
1788378834 25.56° C 62% 1011.2 hPa 0 mm 12.52 m/s, 76° - -
1788378534 25.56° C 61% 1011.2 hPa 0 mm 9.83 m/s, 240° - -
1788378233 25.56° C 60% 1011.2 hPa 0 mm 8.05 m/s, 109° - -
1788377933 25.56° C 59% 1011.2 hPa 0 mm 13.86 m/s, 59° - -
1788377634 25.56° C 58% 1010.8 hPa 0 mm 22.8 m/s, 102° - -
1788377333 25.56° C 57% 1011.2 hPa 0 mm 22.8 m/s, 97° - -
1788377033 25.56° C 58% 1010.8 hPa 0 mm 12.07 m/s, 108° - -
1788376733 25.56° C 58% 1010.8 hPa 0 mm 18.33 m/s, 66° - -
1788376433 25.56° C 57% 1010.8 hPa 0 mm 19.22 m/s, 90° - -
1788376133 25.56° C 57% 1010.8 hPa 0 mm 14.31 m/s, 42° - -
1788375833 26.11° C 55% 1010.8 hPa 0 mm 23.69 m/s, 52° - -
1788375533 26.11° C 51% 1010.8 hPa 0 mm 19.22 m/s, 141° - -
1788375233 26.11° C 50% 1010.8 hPa 0 mm 16.54 m/s, 132° - -
1788374933 26.11° C 52% 1010.8 hPa 0 mm 14.75 m/s, 156° - -
1788374633 25.56° C 54% 1011.2 hPa 0 mm 17.88 m/s, 142° - -
1788374333 25.56° C 56% 1010.8 hPa 0 mm 11.18 m/s, 165° - -
1788374056 25.56° C 57% 1010.8 hPa 0 mm 16.99 m/s, 132° - -
1788373732 25° C 62% 1010.8 hPa 0 mm 12.07 m/s, 116° - -
1788373432 25° C 64% 1011.2 hPa 0 mm 15.2 m/s, 110° - -
1788373132 25° C 65% 1010.8 hPa 0 mm 16.99 m/s, 98° - -
1788372832 25.56° C 63% 1010.8 hPa 0 mm 5.36 m/s, 48° - -

* Rain latest hour (hover to see other rain measurements)
** Current wind speed in m/s (hover to see current wind gust speed)